NSIGHT-1 (42726 NORAD) Tracking and Keplerian Element Data

This shows tracking and keplerian element data for the satellite.

Feedback or suggestion? Click here.




ElementValue
Catalog42726
NameNSIGHT-1
Epoch Orbit6515
Epoch Day198.58003
Epoch Year2018
RAAN214.058
Inclination51.6369
Eccentricity0.0005419
Argument of Perigee354.7345
Mean Anonmoly5.3591
Mean Motion15.61966407
Decay Rate7.631E-05
L11 42726U 98067MF 18198.58003000 .00007631 00000-0 91694-4 0 9994
L22 42726 51.6369 214.0580 0005419 354.7345 5.3591 15.61966407 65158

Live tracking and technical data element details for NSIGHT-1 (NORAD 42726). NSIGHT-1 can be tracked NOW for your location showing map with azimuth and elevation plus other details from your city location.

Track the satellite on the map from your city or location and see movement details for azimuth, elevation, latitude, longitude, range, height, and movement on the map or in text.







IsCatalogInMostPopularTable: catalog: 42726, numindb: 104
Update: records affected: 1



GetName: 42726 NSIGHT-1

Hit Count: updated at: Thu, 19 Jul 2018 03:34:37 GMT